Temp
-10 -10 -10 -10 -10 -10 -10 -10 -10 -9 -10 -9 -9 -9 -10 -10 -10 -11 -13 -12 -13 -14 -13 -13 -15 -16 -15 -15 -16 -16 -15 -15 -15 -15 -14 -14 -14 -14 -14 -15 -15 -15 -15 -14
-10 -10 -11 -11 -11 -11 -11 -10 -10 -9 -10 -10 -10 -9 -10 -11 -11 -12 -13 -13 -15 -14 -14 -16 -16 -15 -15 -15 -16 -17 -15 -15 -15 -15 -15 -14 -15 -15 -15 -15 -14 -14 -14 -15
-10 -10 -11 -10 -10 -10 -10 -10 -10 -10 -10 -9 -11 -10 -9 -12 -13 -14 -15 -16 -16 -15 -14 -15 -15 -15 -16 -16 -15 -16 -16 -15 -15 -15 -15 -15 -15 -15 -15 -15 -15 -15 -15 -15
-10 -11 -10 -10 -11 -11 -11 -11 -10 -10 -10 -9 -11 -13 -8 -13 -13 -14 -16 -16 -16 -15 -13 -14 -15 -15 -16 -17 -15 -15 -16 -16 -15 -15 -15 -15 -15 -15 -15 -16 -16 -16 -16 -16
-10 -10 -10 -10 -10 -10 -10 -11 -10 -11 -11 -11 -8 -14 -10 -13 -14 -15 -16 -15 -16 -16 -15 -14 -15 -15 -16 -16 -17 -16 -16 -17 -17 -17 -16 -16 -16 -16 -16 -16 -15 -16 -16 -16
-11 -11 -11 -11 -11 -11 -11 -12 -11 -11 -13 -12 -11 -13 -9 -13 -15 -15 -16 -16 -16 -15 -15 -14 -15 -17 -16 -16 -17 -16 -16 -16 -17 -17 -17 -16 -16 -16 -16 -16 -15 -16 -16 -16
-11 -12 -12 -12 -12 -12 -12 -12 -12 -11 -12 -14 -12 -14 -12 -14 -16 -16 -16 -16 -16 -16 -15 -15 -15 -17 -17 -17 -17 -17 -17 -17 -16 -17 -18 -18 -18 -17 -17 -16 -16 -16 -16 -16
-12 -12 -12 -12 -12 -13 -14 -14 -15 -15 -13 -14 -13 -15 -13 -16 -17 -17 -16 -16 -16 -17 -16 -16 -16 -17 -17 -17 -17 -18 -18 -18 -17 -16 -17 -18 -18 -18 -18 -18 -17 -17 -17 -17
-12 -13 -13 -13 -13 -13 -14 -14 -16 -17 -15 -17 -14 -14 -14 -16 -16 -17 -17 -17 -17 -17 -17 -18 -18 -18 -16 -17 -18 -18 -18 -19 -19 -18 -18 -18 -18 -18 -18 -18 -18 -18 -18 -18
-13 -13 -13 -13 -13 -14 -15 -16 -17 -17 -17 -18 -17 -15 -15 -16 -18 -18 -19 -19 -19 -19 -19 -19 -20 -20 -20 -19 -18 -18 -19 -18 -18 -18 -18 -18 -19 -18 -17 -18 -18 -17 -17 -17
-13 -13 -13 -14 -14 -15 -16 -16 -17 -18 -17 -19 -20 -16 -16 -17 -18 -18 -18 -19 -19 -20 -20 -20 -20 -20 -20 -19 -19 -19 -19 -18 -18 -18 -18 -18 -18 -18 -18 -18 -18 -18 -17 -17
-14 -14 -14 -14 -16 -17 -17 -17 -18 -19 -19 -20 -21 -18 -18 -19 -20 -20 -20 -19 -19 -20 -20 -20 -20 -21 -21 -22 -23 -23 -23 -23 -23 -22 -20 -19 -21 -21 -21 -21 -21 -21 -20 -20
-14 -15 -15 -15 -17 -17 -17 -18 -18 -19 -20 -18 -21 -19 -19 -20 -21 -21 -21 -21 -21 -21 -21 -23 -24 -24 -22 -24 -23 -23 -24 -23 -22 -23 -22 -21 -22 -22 -23 -23 -23 -22 -22 -21
-16 -16 -17 -17 -18 -19 -20 -20 -21 -22 -22 -22 -22 -23 -23 -22 -22 -21 -22 -23 -24 -25 -25 -24 -24 -24 -23 -23 -23 -23 -23 -23 -23 -23 -23 -23 -23 -23 -23 -24 -24 -23 -22 -20
-17 -17 -18 -18 -18 -19 -20 -20 -21 -22 -24 -25 -24 -25 -24 -25 -23 -24 -25 -25 -25 -25 -25 -24 -23 -24 -24 -23 -23 -23 -23 -23 -23 -23 -22 -23 -23 -23 -22 -23 -24 -24 -22 -21
-18 -18 -19 -18 -20 -20 -20 -20 -22 -24 -24 -25 -26 -26 -27 -26 -26 -26 -26 -25 -25 -25 -24 -24 -24 -24 -24 -24 -23 -23 -23 -23 -24 -23 -23 -23 -23 -23 -23 -22 -22 -23 -23 -21
-20 -20 -20 -19 -21 -22 -21 -23 -25 -26 -27 -27 -27 -27 -27 -27 -27 -26 -25 -25 -25 -25 -24 -24 -24 -24 -24 -24 -24 -24 -23 -23 -23 -23 -23 -23 -23 -22 -22 -23 -22 -23 -22 -21
-21 -22 -24 -25 -25 -24 -24 -25 -27 -28 -28 -28 -28 -28 -28 -27 -26 -26 -25 -24 -25 -25 -25 -24 -24 -24 -24 -24 -24 -25 -25 -24 -23 -23 -23 -22 -23 -22 -23 -22 -22 -22 -22 -21
-24 -25 -25 -26 -27 -27 -27 -28 -29 -29 -28 -28 -28 -28 -27 -26 -26 -25 -25 -24 -25 -24 -25 -25 -25 -24 -25 -24 -24 -24 -25 -24 -24 -23 -22 -22 -22 -22 -22 -21 -22 -22 -21 -21
-26 -27 -28 -28 -29 -29 -28 -29 -28 -29 -28 -28 -27 -27 -27 -26 -26 -25 -25 -25 -25 -25 -25 -25 -25 -25 -24 -24 -24 -24 -24 -24 -24 -24 -23 -22 -22 -22 -22 -22 -21 -21 -21 -21
-29 -30 -30 -30 -30 -30 -29 -29 -29 -29 -29 -28 -27 -27 -27 -26 -26 -25 -25 -25 -25 -25 -25 -25 -25 -25 -24 -25 -24 -24 -24 -24 -24 -24 -23 -22 -22 -22 -22 -22 -22 -22 -21 -21
-30 -30 -30 -30 -30 -30 -30 -30 -30 -29 -29 -28 -28 -27 -26 -26 -26 -25 -25 -25 -25 -25 -25 -25 -25 -25 -25 -24 -24 -24 -24 -24 -24 -24 -24 -22 -22 -22 -22 -22 -22 -22 -22 -22
-31 -31 -31 -31 -31 -31 -31 -31 -30 -29 -28 -28 -28 -27 -26 -26 -26 -26 -25 -25 -25 -25 -25 -26 -26 -25 -24 -24 -24 -24 -24 -24 -24 -24 -24 -24 -23 -22 -22 -22 -22 -22 -22 -22
-31 -32 -32 -32 -31 -32 -31 -30 -29 -29 -28 -28 -27 -26 -26 -26 -26 -26 -26 -25 -25 -26 -26 -26 -25 -25 -25 -25 -24 -24 -24 -24 -24 -24 -24 -24 -25 -23 -23 -22 -22 -22 -23 -23
-32 -32 -32 -31 -31 -30 -29 -29 -28 -28 -28 -27 -27 -26 -26 -26 -26 -26 -26 -26 -25 -25 -25 -25 -25 -25 -25 -25 -25 -25 -24 -24 -24 -24 -24 -24 -24 -24 -24 -23 -23 -23 -23 -23
-31 -31 -30 -29 -29 -29 -29 -28 -28 -28 -28 -27 -27 -26 -26 -26 -26 -25 -25 -25 -25 -25 -25 -25 -25 -26 -26 -26 -25 -25 -25 -25 -24 -24 -24 -24 -24 -24 -24 -24 -23 -23 -23 -23
Height
5763 5763 5765 5762 5760 5756 5753 5750 5748 5750 5749 5745 5743 5742 5736 5733 5727 5723 5716 5712 5707 5704 5701 5699 5701 5697 5692 5691 5698 5700 5701 5702 5702 5703 5706 5707 5709 5711 5712 5714 5715 5716 5718 5720
5757 5758 5756 5753 5751 5749 5745 5744 5741 5738 5739 5731 5726 5730 5723 5718 5715 5709 5704 5700 5693 5691 5688 5686 5685 5684 5681 5680 5685 5689 5692 5692 5691 5692 5694 5695 5698 5699 5701 5702 5704 5708 5710 5711
5748 5751 5745 5742 5740 5737 5734 5734 5729 5727 5726 5724 5709 5711 5721 5707 5704 5699 5694 5689 5684 5679 5677 5674 5675 5672 5672 5672 5672 5676 5680 5681 5681 5682 5683 5685 5685 5686 5688 5693 5697 5699 5701 5702
5742 5742 5739 5734 5730 5726 5723 5722 5719 5715 5711 5713 5706 5690 5706 5697 5694 5687 5682 5678 5672 5663 5664 5664 5663 5663 5663 5659 5656 5661 5667 5668 5670 5672 5673 5673 5675 5675 5677 5681 5684 5686 5689 5690
5735 5730 5727 5724 5719 5713 5713 5709 5705 5703 5696 5695 5704 5679 5681 5682 5675 5674 5669 5663 5660 5653 5653 5651 5651 5653 5652 5652 5650 5648 5649 5655 5658 5660 5662 5660 5662 5663 5664 5665 5669 5673 5675 5678
5721 5716 5715 5712 5706 5701 5697 5694 5689 5689 5681 5676 5686 5675 5679 5672 5665 5657 5656 5650 5641 5639 5637 5637 5638 5642 5643 5642 5640 5637 5639 5639 5642 5645 5648 5649 5648 5649 5650 5652 5653 5658 5663 5665
5707 5703 5699 5695 5693 5686 5680 5676 5671 5672 5664 5658 5666 5660 5666 5665 5650 5644 5641 5634 5626 5622 5620 5622 5625 5624 5624 5622 5624 5625 5623 5623 5624 5629 5629 5630 5632 5633 5634 5637 5639 5643 5647 5650
5692 5690 5685 5681 5678 5674 5669 5662 5657 5649 5654 5651 5657 5647 5655 5654 5637 5628 5628 5624 5619 5614 5612 5611 5607 5607 5607 5608 5608 5609 5608 5606 5606 5609 5611 5610 5610 5612 5615 5619 5622 5627 5632 5636
5678 5676 5671 5669 5665 5665 5658 5652 5644 5634 5634 5625 5638 5642 5641 5631 5622 5615 5614 5613 5609 5604 5598 5594 5592 5589 5585 5584 5586 5585 5587 5587 5586 5588 5587 5588 5590 5590 5593 5598 5600 5606 5612 5619
5666 5663 5660 5656 5651 5648 5643 5637 5629 5622 5613 5607 5610 5623 5623 5611 5604 5604 5603 5597 5594 5590 5583 5578 5572 5566 5563 5559 5556 5554 5553 5550 5557 5559 5564 5565 5564 5566 5568 5572 5577 5583 5591 5600
5650 5648 5651 5640 5634 5632 5624 5622 5612 5607 5601 5590 5586 5603 5604 5592 5589 5586 5584 5581 5575 5569 5563 5557 5552 5547 5541 5535 5531 5527 5525 5521 5524 5523 5526 5534 5534 5535 5539 5545 5550 5557 5567 5576
5637 5633 5631 5630 5620 5613 5608 5603 5600 5590 5587 5579 5569 5574 5588 5578 5568 5562 5557 5555 5551 5543 5536 5531 5524 5518 5515 5511 5505 5505 5502 5500 5500 5498 5502 5502 5502 5503 5510 5519 5526 5534 5543 5551
5620 5614 5612 5616 5602 5595 5590 5586 5583 5576 5565 5565 5553 5548 5566 5555 5547 5542 5532 5532 5527 5522 5515 5512 5507 5507 5505 5497 5497 5494 5491 5485 5489 5485 5480 5482 5484 5484 5488 5494 5503 5511 5523 5532
5600 5599 5596 5595 5593 5580 5576 5573 5566 5554 5547 5544 5539 5529 5536 5535 5525 5525 5519 5513 5510 5509 5506 5504 5502 5500 5495 5492 5488 5484 5481 5478 5476 5474 5471 5470 5471 5470 5470 5475 5483 5491 5503 5514
5584 5582 5578 5578 5570 5567 5563 5559 5550 5542 5539 5529 5523 5516 5515 5510 5506 5506 5504 5502 5502 5502 5501 5493 5489 5492 5490 5485 5480 5476 5471 5469 5461 5464 5462 5461 5460 5459 5461 5465 5469 5474 5481 5493
5567 5564 5557 5563 5549 5545 5544 5538 5534 5525 5522 5516 5510 5508 5505 5499 5499 5496 5496 5495 5495 5494 5493 5490 5487 5487 5484 5478 5473 5468 5464 5460 5457 5455 5454 5452 5451 5450 5451 5454 5456 5463 5468 5477
5549 5540 5534 5534 5534 5522 5523 5528 5515 5510 5506 5507 5499 5498 5493 5494 5493 5493 5491 5489 5489 5487 5485 5481 5483 5482 5479 5474 5469 5463 5459 5454 5451 5448 5445 5441 5441 5441 5444 5445 5448 5452 5459 5469
5530 5524 5518 5511 5512 5503 5513 5508 5505 5497 5495 5490 5489 5485 5485 5483 5485 5486 5485 5483 5483 5481 5480 5479 5478 5477 5473 5470 5467 5461 5458 5452 5447 5441 5434 5430 5432 5434 5436 5437 5439 5445 5451 5462
5515 5510 5505 5498 5493 5489 5491 5491 5487 5486 5488 5481 5480 5479 5478 5478 5478 5482 5481 5479 5478 5477 5476 5475 5473 5472 5471 5467 5465 5459 5455 5449 5442 5434 5426 5422 5424 5428 5430 5431 5434 5440 5446 5453
5493 5487 5485 5484 5479 5477 5484 5480 5477 5476 5478 5476 5475 5475 5474 5474 5473 5475 5476 5473 5474 5472 5472 5470 5468 5467 5466 5463 5461 5458 5452 5448 5441 5432 5424 5423 5424 5426 5427 5427 5429 5436 5445 5452
5486 5486 5478 5474 5472 5472 5470 5470 5470 5470 5469 5466 5470 5470 5470 5470 5471 5470 5469 5469 5469 5469 5468 5466 5465 5463 5462 5461 5457 5455 5451 5447 5442 5435 5428 5427 5428 5429 5430 5431 5434 5440 5447 5453
5473 5472 5469 5467 5464 5462 5460 5459 5462 5460 5461 5461 5465 5465 5465 5466 5466 5464 5464 5465 5465 5465 5464 5463 5462 5459 5457 5455 5454 5451 5450 5446 5443 5438 5432 5429 5430 5433 5435 5437 5441 5446 5451 5457
5461 5460 5456 5456 5453 5454 5452 5447 5450 5453 5458 5459 5460 5461 5461 5462 5461 5460 5460 5460 5460 5460 5457 5456 5456 5454 5451 5449 5448 5446 5445 5445 5442 5440 5437 5433 5432 5435 5437 5440 5444 5449 5454 5460
5448 5447 5445 5444 5445 5439 5441 5445 5448 5451 5453 5455 5456 5457 5458 5458 5457 5457 5457 5456 5456 5455 5453 5452 5450 5448 5446 5443 5443 5440 5438 5439 5440 5439 5438 5438 5435 5436 5439 5443 5446 5450 5454 5459
5441 5439 5439 5439 5438 5438 5442 5445 5447 5449 5452 5453 5452 5453 5455 5454 5454 5453 5452 5451 5450 5449 5447 5446 5444 5443 5441 5438 5435 5434 5430 5432 5434 5433 5434 5435 5438 5437 5438 5442 5446 5449 5452 5456
5438 5438 5439 5439 5440 5442 5443 5445 5448 5450 5450 5450 5450 5450 5451 5451 5450 5449 5448 5447 5445 5444 5441 5440 5437 5435 5432 5429 5425 5426 5420 5420 5424 5429 5428 5430 5432 5435 5437 5439 5443 5446 5450 5454
Wind_Speed
29 30 29 34 38 42 42 45 47 47 48 51 55 52 60 61 62 59 55 57 52 49 51 50 43 56 52 46 38 38 41 44 40 43 48 44 42 43 43 40 39 39 40 41
31 32 36 38 40 42 45 44 43 47 47 55 60 60 59 61 55 50 47 47 45 49 52 45 42 45 48 45 38 36 38 40 48 48 46 45 44 45 43 43 43 42 43 46
35 32 39 44 49 52 49 46 49 54 56 60 65 65 59 51 47 47 41 35 40 47 54 53 42 42 45 40 42 37 36 41 45 48 48 47 47 47 44 42 42 42 46 49
41 40 45 47 47 49 53 53 58 62 63 66 61 61 67 51 50 49 40 39 34 46 59 55 43 45 42 43 47 44 43 39 43 45 49 49 48 47 46 44 45 48 50 52
46 50 54 57 57 58 55 57 61 62 64 67 69 57 67 52 51 44 31 38 44 53 55 62 59 46 45 44 50 51 48 39 44 46 48 50 51 51 50 49 48 48 51 53
46 49 51 54 57 60 58 61 66 63 59 66 62 58 74 53 37 32 35 43 50 54 55 58 53 42 48 46 48 52 51 55 48 45 49 50 52 52 53 53 53 50 53 56
54 54 56 59 60 65 66 64 68 70 68 60 63 57 63 54 38 49 47 46 51 53 58 59 56 64 57 60 59 57 59 57 55 53 56 59 56 56 56 57 56 54 53 55
55 58 59 60 61 59 60 63 63 65 69 64 63 62 56 50 44 51 50 52 56 57 62 64 70 70 67 67 67 67 67 67 69 67 65 63 65 66 60 60 61 59 55 56
59 62 62 59 62 65 63 67 63 63 66 65 66 63 59 52 58 59 59 59 62 65 65 67 65 73 77 76 75 77 74 73 75 75 74 74 73 75 74 74 73 66 68 59
60 60 62 62 66 66 65 62 62 64 64 63 64 59 56 61 59 60 55 57 61 64 66 68 73 80 83 84 84 84 82 84 80 79 76 78 82 84 83 81 82 80 79 73
60 63 65 70 71 69 66 68 65 64 65 65 65 62 61 63 62 67 69 69 71 74 76 75 77 77 76 75 77 80 83 84 86 85 82 79 79 82 79 79 79 79 81 79
65 65 69 70 66 63 62 63 62 59 59 62 62 70 62 65 68 71 74 77 77 75 79 78 71 64 60 43 42 38 39 41 43 45 45 47 49 58 64 65 65 65 67 68
70 71 71 67 64 63 66 67 67 68 69 72 72 80 69 71 71 71 75 72 70 62 57 44 32 22 22 26 30 30 35 29 38 35 40 51 44 47 55 63 66 70 71 71
70 69 65 65 61 61 63 62 63 63 68 70 73 72 67 65 67 70 55 46 39 29 27 21 25 29 32 34 34 39 35 36 31 31 35 39 35 37 43 53 67 71 70 78
69 68 67 67 66 65 66 69 69 67 62 61 65 59 53 41 56 45 34 31 27 25 28 30 17 28 30 31 27 33 29 29 24 27 30 31 31 33 36 45 53 60 66 67
69 69 69 68 70 71 73 74 66 60 61 62 45 35 41 43 36 29 29 25 24 25 29 32 25 24 31 25 27 26 28 28 28 27 30 29 32 29 31 30 41 45 41 59
68 71 72 77 71 70 77 61 58 51 39 33 43 41 50 40 31 23 23 25 24 25 22 19 20 22 25 20 24 22 24 27 32 32 33 34 33 37 32 31 40 40 34 34
72 71 64 63 60 68 62 55 38 37 40 46 43 37 37 30 18 22 20 10 15 19 18 20 18 20 21 23 24 24 23 23 24 29 31 31 25 29 25 27 33 27 34 34
67 63 59 59 53 49 45 25 26 35 31 40 29 22 19 17 20 18 13 4 8 10 14 16 20 19 15 19 19 20 23 28 32 22 24 20 20 28 25 23 27 29 28 34
60 58 52 47 43 34 23 26 34 36 36 35 20 14 17 19 15 19 19 20 21 16 17 15 18 15 14 18 18 21 23 25 32 35 15 3 8 10 10 10 18 22 25 28
41 34 37 35 33 34 26 30 31 36 39 25 11 6 19 20 14 18 27 22 21 16 15 12 16 19 19 15 20 18 23 23 23 30 18 6 4 5 10 14 20 24 25 27
32 36 38 38 40 42 40 40 41 36 23 13 7 10 18 18 14 12 19 18 19 19 18 16 18 21 22 22 20 22 22 19 19 23 30 5 7 10 10 13 18 20 26 24
34 35 39 38 35 34 35 30 23 17 10 9 12 13 12 13 13 11 12 21 26 22 22 15 19 23 25 26 25 25 23 21 19 17 20 21 7 16 13 14 19 22 23 22
26 24 28 28 18 21 27 15 6 7 5 9 15 13 12 10 9 12 13 11 14 16 18 22 25 28 30 32 28 32 32 26 24 20 17 16 20 4 16 18 20 21 24 26
22 25 22 8 11 15 10 2 6 5 7 10 6 7 9 9 12 14 15 17 19 21 24 27 29 32 34 36 37 36 39 34 27 28 23 19 13 15 7 15 13 21 26 26
3 4 6 5 3 4 6 8 5 5 9 4 5 8 10 13 16 19 20 22 24 26 30 32 32 29 31 34 39 34 35 36 35 31 29 23 20 16 16 12 19 22 25 23
Wind_Direction
278 276 278 275 279 285 289 291 295 297 297 299 300 302 295 294 294 299 297 294 290 291 291 294 287 275 272 265 259 257 254 252 251 250 251 250 249 249 251 249 251 253 254 257
282 289 288 286 285 288 288 293 295 292 300 301 302 306 299 297 298 298 294 287 292 294 294 291 282 283 264 262 255 250 253 250 250 248 246 246 245 247 248 249 254 256 261 261
287 294 292 294 294 293 290 291 293 294 298 301 303 301 311 298 299 297 294 284 277 282 285 286 284 277 268 262 259 251 242 245 246 245 246 245 244 246 249 252 258 262 262 263
288 288 288 287 289 291 290 291 289 291 296 294 298 292 311 302 296 294 287 270 265 270 282 285 277 284 271 254 260 254 245 241 242 246 245 246 245 247 251 252 252 254 255 256
288 288 286 285 288 286 290 294 294 296 299 300 304 296 309 300 299 296 285 269 266 266 268 276 276 279 273 265 251 252 253 246 247 243 244 247 248 249 250 251 251 253 255 256
290 285 285 283 282 287 292 296 297 299 296 294 307 296 308 304 301 276 267 269 262 261 266 278 273 267 279 276 273 272 261 253 244 248 247 246 247 249 250 251 253 253 257 256
297 293 293 293 295 295 299 302 299 300 299 301 305 298 305 301 275 279 273 254 250 256 264 284 281 286 280 277 276 274 274 267 259 254 243 247 252 249 250 251 249 253 253 255
295 293 295 297 296 298 301 301 299 295 296 292 291 288 299 288 275 271 267 260 264 260 270 273 281 283 281 279 279 275 273 271 272 267 264 262 262 260 255 248 254 252 252 257
295 297 297 297 296 298 297 295 293 290 289 285 289 291 294 289 277 276 274 276 275 270 265 273 280 280 282 282 281 278 276 273 271 268 267 265 261 260 259 259 258 251 253 253
292 293 293 292 294 296 293 292 289 288 287 285 289 290 291 281 276 286 285 278 277 275 274 273 276 281 284 284 284 282 279 276 270 268 266 265 265 260 259 259 258 258 257 255
290 292 294 293 293 294 291 288 287 286 285 286 285 288 288 289 289 284 282 283 280 276 277 278 279 282 283 280 276 276 275 273 273 273 271 266 260 259 260 258 258 259 257 256
289 290 291 291 292 289 286 286 284 282 285 284 280 288 291 288 286 288 287 283 287 289 287 289 289 286 287 283 290 280 272 272 277 274 270 268 249 246 244 248 251 244 244 243
290 289 290 291 288 288 287 289 289 288 287 288 287 290 288 289 291 291 291 294 292 290 287 288 288 298 291 292 294 289 287 283 262 274 250 238 256 258 248 242 239 238 235 238
287 287 287 287 285 284 285 287 287 283 281 289 287 293 294 292 290 297 295 283 284 289 291 293 291 290 294 290 286 290 286 276 273 275 275 266 265 258 254 237 234 236 234 232
287 287 286 286 285 284 286 286 284 283 288 288 295 299 306 297 306 301 281 283 277 280 285 277 282 285 297 302 295 300 293 281 278 270 276 274 272 266 253 246 247 247 234 226
288 287 285 288 286 285 285 283 289 289 291 292 295 299 283 287 296 292 292 288 289 287 277 284 296 292 300 307 313 302 301 298 290 288 298 269 262 254 251 239 261 236 250 229
286 285 284 285 284 285 283 295 290 295 294 273 275 281 273 280 279 286 285 284 287 293 271 280 282 291 310 312 336 299 299 293 293 292 293 281 261 252 252 240 248 242 235 235
282 286 290 292 289 286 295 290 291 269 269 270 283 281 279 290 289 276 282 261 295 304 297 283 294 305 318 315 326 334 339 330 301 280 268 282 254 243 246 259 244 232 231 223
287 287 288 288 289 292 296 298 270 267 272 281 277 273 286 284 280 271 295 322 305 331 309 302 296 300 308 316 324 329 326 330 336 345 290 284 236 234 249 245 235 229 223 223
295 296 294 291 292 292 298 257 273 264 274 286 259 285 276 293 289 259 250 290 293 294 297 304 294 288 294 310 323 338 335 340 340 341 358 267 232 218 213 230 222 213 201 210
280 272 272 277 282 285 281 275 263 267 278 252 253 300 255 259 258 252 253 269 285 290 292 299 300 295 299 312 317 323 331 340 347 343 18 138 139 171 155 135 141 147 159 155
273 263 265 261 263 266 264 268 265 256 258 241 265 252 243 248 284 248 237 264 286 283 286 295 297 296 299 301 306 307 315 325 342 347 350 115 221 205 184 150 156 159 168 158
262 260 264 261 266 265 269 261 233 236 232 254 264 259 263 304 296 326 274 270 273 284 304 275 292 293 292 294 296 296 298 302 312 331 341 349 44 191 198 199 179 163 172 179
289 283 271 270 284 268 230 218 217 243 238 277 258 269 277 285 301 296 295 296 292 288 288 286 288 293 290 290 290 289 287 286 285 290 306 323 333 187 189 199 198 193 191 188
283 267 266 253 244 190 172 125 179 209 259 264 219 258 276 297 303 305 306 304 301 297 296 295 295 294 295 297 289 291 289 281 275 274 278 289 296 307 243 189 229 210 200 193
49 152 138 129 108 133 167 176 183 234 252 251 296 299 301 301 304 304 300 297 296 296 295 296 297 291 290 291 292 292 287 279 268 265 266 270 275 283 266 236 204 228 206 192